Location: Peebles
(55.6412°N, 3.1714°W)
Time: 00:29:44
(UTC+00:00)

Cosmos 1536 Rocket - Visible Passes

Search period start: 28 January 2022 00:00
Search period end: 07 February 2022 00:00
Orbit: 605 x 632 km, 82.5° (Epoch: 27 January)

Date Brightness Start Highest point End Pass type
(mag) Time Alt. Az. Time Alt. Az. Time Alt. Az.
28 Jan 3.8 17:15:48 10° S 17:20:07 51° E 17:24:25 10° NNE visible
28 Jan 5.7 18:54:31 10° WSW 18:58:15 26° WNW 19:01:59 10° N visible
29 Jan 3.6 17:32:50 10° S 17:37:17 84° ESE 17:41:44 10° NNE visible
29 Jan 6.3 19:12:47 10° W 19:15:46 17° WNW 19:18:46 10° NNW visible
30 Jan 4.2 17:50:09 10° SSW 17:54:32 60° WNW 17:58:55 10° N visible
30 Jan 6.6 19:31:42 10° WNW 19:33:23 12° NW 19:35:04 10° NNW visible
31 Jan 5.1 18:07:44 10° SW 18:11:52 38° WNW 18:16:01 10° N visible
01 Feb 5.8 18:25:38 10° WSW 18:29:18 25° WNW 18:32:58 10° N visible
02 Feb 6.3 18:43:55 10° W 18:46:49 17° WNW 18:49:43 10° NNW visible
03 Feb 6.5 19:02:56 10° WNW 19:04:26 11° NW 19:05:57 10° NNW visible
04 Feb 5.1 17:38:49 10° SW 17:42:54 37° WNW 17:47:00 10° N visible
05 Feb 5.8 17:56:44 10° WSW 18:00:21 24° WNW 18:03:58 10° N visible
06 Feb 6.3 18:15:03 10° W 18:17:52 16° WNW 18:20:41 10° NNW visible
